Time,TemperatureF,DewpointF,PressureIn,WindDirection,WindDirectionDegrees,WindSpeedMPH,WindSpeedGustMPH,Humidity,HourlyPrecipIn,Conditions,Clouds,dailyrainin,SoftwareType,DateUTC
2013-05-12 08:10:00,54.1,53.4,29.84,NW,312,3.4,3.4,98,0.00,,,0.01,VWS V14.00,2013-05-12 12:10:00,
2013-05-12 08:15:00,54.6,53.7,29.84,NW,312,0.0,7.0,97,0.00,,,0.01,VWS V14.00,2013-05-12 12:15:00,
2013-05-12 08:20:00,55.3,54.1,29.84,NNW,330,6.3,8.3,96,0.00,,,0.01,VWS V14.00,2013-05-12 12:20:00,
2013-05-12 08:25:00,55.5,54.1,29.84,North,3,0.0,8.3,95,0.00,,,0.01,VWS V14.00,2013-05-12 12:25:00,
2013-05-12 08:30:00,55.4,53.8,29.85,North,357,0.0,8.3,94,0.00,,,0.01,VWS V14.00,2013-05-12 12:30:00,
2013-05-12 08:35:00,56.1,54.6,29.85,North,7,0.0,6.0,95,0.00,,,0.01,VWS V14.00,2013-05-12 12:35:00,
2013-05-12 08:40:00,56.3,54.3,29.85,NNE,24,0.0,7.8,93,0.00,,,0.01,VWS V14.00,2013-05-12 12:40:00,
2013-05-12 08:45:00,56.1,53.7,29.85,WNW,298,3.2,9.9,92,0.00,,,0.01,VWS V14.00,2013-05-12 12:45:00,
2013-05-12 08:50:00,56.6,54.1,29.86,North,349,4.3,6.7,91,0.00,,,0.01,VWS V14.00,2013-05-12 12:50:00,
2013-05-12 08:55:00,57.0,54.0,29.86,NNW,339,4.3,10.6,90,0.00,,,0.01,VWS V14.00,2013-05-12 12:55:00,
2013-05-12 09:00:00,57.2,54.1,29.86,North,359,4.3,10.6,89,0.00,,,0.01,VWS V14.00,2013-05-12 13:00:00,
2013-05-12 09:05:00,57.9,54.5,29.86,North,359,0.0,10.9,88,0.00,,FEW080,0.01,VWS V14.00,2013-05-12 13:05:00,
2013-05-12 09:10:00,57.4,53.0,29.86,NW,307,0.0,14.4,85,0.00,,FEW080,0.01,VWS V14.00,2013-05-12 13:10:00,
2013-05-12 09:15:00,59.4,55.1,29.86,NW,307,4.8,14.4,86,0.00,,FEW080,0.01,VWS V14.00,2013-05-12 13:15:00,
2013-05-12 09:21:00,59.6,54.9,29.86,NNW,343,6.3,9.0,84,0.00,,FEW080,0.01,VWS V14.00,2013-05-12 13:21:00,
2013-05-12 09:26:00,59.9,55.1,29.86,WNW,284,5.2,9.0,84,0.00,,FEW080,0.01,VWS V14.00,2013-05-12 13:26:00,
2013-05-12 09:31:00,60.1,55.1,29.86,NE,42,5.1,11.9,84,0.00,,FEW080,0.01,VWS V14.00,2013-05-12 13:31:00,
2013-05-12 09:36:00,60.2,54.8,29.87,NNE,21,6.2,11.1,82,0.00,,FEW080,0.01,VWS V14.00,2013-05-12 13:36:00,
2013-05-12 09:41:00,60.3,54.3,29.87,NW,326,4.7,12.1,81,0.00,,FEW080,0.01,VWS V14.00,2013-05-12 13:41:00,
2013-05-12 09:46:00,60.5,54.9,29.87,North,359,2.4,12.1,82,0.00,,CLR,0.01,VWS V14.00,2013-05-12 13:46:00,
2013-05-12 09:50:00,60.3,54.1,29.86,NW,321,6.5,11.6,80,0.00,,CLR,0.01,VWS V14.00,2013-05-12 13:50:00,
2013-05-12 09:56:00,60.2,53.4,29.87,North,8,5.0,15.0,78,0.00,,CLR,0.01,VWS V14.00,2013-05-12 13:56:00,
2013-05-12 10:00:00,60.6,53.4,29.87,NW,315,9.8,15.0,77,0.00,,CLR,0.01,VWS V14.00,2013-05-12 14:00:00,
2013-05-12 10:05:00,60.3,53.5,29.87,North,359,0.0,17.5,78,0.00,,CLR,0.01,VWS V14.00,2013-05-12 14:05:00,
2013-05-12 10:10:00,60.7,53.6,29.87,North,359,6.3,17.5,77,0.00,,CLR,0.01,VWS V14.00,2013-05-12 14:10:00,
2013-05-12 10:15:00,61.1,53.7,29.87,North,359,6.3,17.5,77,0.00,,CLR,0.01,VWS V14.00,2013-05-12 14:15:00,
2013-05-12 10:20:00,61.2,54.4,29.87,NW,314,0.0,7.9,78,0.00,,CLR,0.01,VWS V14.00,2013-05-12 14:20:00,
2013-05-12 10:26:00,60.5,53.1,29.87,North,7,3.3,12.3,76,0.00,,CLR,0.01,VWS V14.00,2013-05-12 14:26:00,
2013-05-12 10:31:00,61.6,53.5,29.87,North,4,5.5,13.1,75,0.00,,CLR,0.01,VWS V14.00,2013-05-12 14:31:00,
2013-05-12 10:36:00,61.8,53.5,29.87,NNE,25,5.8,8.8,74,0.00,,CLR,0.01,VWS V14.00,2013-05-12 14:36:00,
2013-05-12 10:41:00,61.9,53.1,29.87,North,8,5.5,14.4,73,0.00,,CLR,0.01,VWS V14.00,2013-05-12 14:41:00,
2013-05-12 10:46:00,62.0,53.2,29.87,WNW,291,6.9,16.1,73,0.00,,SCT032,0.01,VWS V14.00,2013-05-12 14:46:00,
2013-05-12 10:51:00,61.7,53.3,29.87,NNE,17,2.5,12.1,74,0.00,,SCT032,0.01,VWS V14.00,2013-05-12 14:51:00,
2013-05-12 10:56:00,62.4,54.0,29.87,WNW,301,4.2,12.1,74,0.00,,SCT032,0.01,VWS V14.00,2013-05-12 14:56:00,
2013-05-12 11:01:00,62.7,54.1,29.87,North,359,0.0,12.1,74,0.00,,SCT032,0.01,VWS V14.00,2013-05-12 15:01:00,
2013-05-12 11:06:00,62.6,53.1,29.87,West,264,0.0,8.9,71,0.00,,SCT032,0.01,VWS V14.00,2013-05-12 15:06:00,
2013-05-12 11:11:00,63.2,52.1,29.87,NW,321,11.9,11.9,67,0.00,,SCT032,0.01,VWS V14.00,2013-05-12 15:11:00,
2013-05-12 11:16:00,63.1,52.9,29.87,WNW,300,4.6,11.9,69,0.00,,SCT032,0.01,VWS V14.00,2013-05-12 15:16:00,
2013-05-12 11:21:00,63.2,52.5,29.87,NE,44,0.0,14.0,68,0.00,,SCT032,0.01,VWS V14.00,2013-05-12 15:21:00,
2013-05-12 11:26:00,62.2,50.8,29.87,NNW,333,8.3,14.0,66,0.00,,SCT032,0.01,VWS V14.00,2013-05-12 15:26:00,
2013-05-12 11:31:00,63.1,52.2,29.87,NW,326,7.6,14.0,68,0.00,,SCT032,0.01,VWS V14.00,2013-05-12 15:31:00,
2013-05-12 11:36:00,62.8,52.2,29.87,NE,37,5.7,9.7,68,0.00,,SCT032,0.01,VWS V14.00,2013-05-12 15:36:00,
2013-05-12 11:40:00,62.4,50.7,29.87,North,359,0.0,9.9,65,0.00,,SCT032,0.01,VWS V14.00,2013-05-12 15:40:00,
2013-05-12 11:45:00,62.1,49.9,29.87,NNE,14,5.4,9.9,64,0.00,,SCT035,0.01,VWS V14.00,2013-05-12 15:45:00,
2013-05-12 11:50:00,61.8,48.0,29.87,NNW,330,17.0,17.0,61,0.00,,SCT035,0.01,VWS V14.00,2013-05-12 15:50:00,
2013-05-12 11:55:00,62.0,47.6,29.87,NNE,24,5.0,17.0,59,0.00,,SCT035,0.01,VWS V14.00,2013-05-12 15:55:00,
2013-05-12 12:00:00,61.5,47.6,29.87,NNW,328,5.7,17.0,60,0.00,,SCT035,0.01,VWS V14.00,2013-05-12 16:00:00,
2013-05-12 12:06:00,61.9,47.7,29.87,NNW,342,5.2,13.6,60,0.00,,SCT035,0.01,VWS V14.00,2013-05-12 16:06:00,
2013-05-12 12:11:00,62.0,47.0,29.87,NNW,340,6.3,17.3,58,0.00,,SCT035,0.01,VWS V14.00,2013-05-12 16:11:00,
2013-05-12 12:16:00,62.0,46.3,29.87,NNW,342,9.8,17.6,56,0.00,,SCT035,0.01,VWS V14.00,2013-05-12 16:16:00,
2013-05-12 12:21:00,61.7,47.2,29.87,North,357,7.4,13.1,59,0.00,,SCT035,0.01,VWS V14.00,2013-05-12 16:21:00,
2013-05-12 12:26:00,62.8,46.3,29.87,North,349,9.3,13.2,55,0.00,,SCT035,0.01,VWS V14.00,2013-05-12 16:26:00,
2013-05-12 12:31:00,63.0,45.9,29.87,NW,307,5.8,13.7,54,0.00,,SCT035,0.01,VWS V14.00,2013-05-12 16:31:00,
2013-05-12 12:36:00,63.1,45.3,29.87,NNW,333,8.3,17.5,52,0.00,,SCT035,0.01,VWS V14.00,2013-05-12 16:36:00,
2013-05-12 12:41:00,63.0,44.7,29.88,NNE,15,8.2,17.5,51,0.00,,SCT035,0.01,VWS V14.00,2013-05-12 16:41:00,
2013-05-12 12:46:00,63.4,45.8,29.88,NNW,332,8.9,17.5,53,0.00,,SCT040,0.01,VWS V14.00,2013-05-12 16:46:00,
2013-05-12 12:51:00,63.5,45.3,29.88,NNW,346,6.2,14.2,51,0.00,,SCT040,0.01,VWS V14.00,2013-05-12 16:51:00,
2013-05-12 12:56:00,63.8,45.1,29.88,NNW,347,9.0,14.2,51,0.00,,SCT040,0.01,VWS V14.00,2013-05-12 16:56:00,
2013-05-12 13:01:00,63.6,43.7,29.88,NW,311,10.4,10.4,48,0.00,,SCT040,0.01,VWS V14.00,2013-05-12 17:01:00,
2013-05-12 13:06:00,63.7,44.6,29.88,NNW,345,3.5,15.0,50,0.00,,SCT040,0.01,VWS V14.00,2013-05-12 17:06:00,
2013-05-12 13:11:00,64.2,44.5,29.88,WNW,291,8.1,15.0,49,0.00,,SCT040,0.01,VWS V14.00,2013-05-12 17:11:00,
2013-05-12 13:16:00,64.0,43.8,29.88,NW,316,9.1,9.1,48,0.00,,SCT040,0.01,VWS V14.00,2013-05-12 17:16:00,
2013-05-12 13:21:00,63.8,43.9,29.88,North,10,6.5,12.9,48,0.00,,SCT040,0.01,VWS V14.00,2013-05-12 17:21:00,
2013-05-12 13:26:00,64.2,45.1,29.87,NNE,15,11.2,12.9,50,0.00,,SCT040,0.01,VWS V14.00,2013-05-12 17:26:00,
2013-05-12 13:31:00,64.3,43.7,29.88,NW,316,8.0,8.0,47,0.00,,SCT040,0.01,VWS V14.00,2013-05-12 17:31:00,
2013-05-12 13:36:00,64.4,43.8,29.88,NNW,335,8.1,17.8,47,0.00,,SCT040,0.01,VWS V14.00,2013-05-12 17:36:00,
2013-05-12 13:41:00,64.1,43.4,29.88,NNE,17,5.2,17.8,47,0.00,,SCT040,0.01,VWS V14.00,2013-05-12 17:41:00,
2013-05-12 13:46:00,64.2,43.5,29.88,North,3,9.8,9.8,47,0.00,,SCT045,0.01,VWS V14.00,2013-05-12 17:46:00,
2013-05-12 13:51:00,64.7,43.9,29.88,NNW,329,3.4,9.8,47,0.00,,SCT045,0.01,VWS V14.00,2013-05-12 17:51:00,
2013-05-12 13:56:00,64.6,43.1,29.87,NNW,338,7.3,16.0,46,0.00,,SCT045,0.01,VWS V14.00,2013-05-12 17:56:00,
2013-05-12 14:01:00,65.0,43.4,29.87,NNW,345,7.5,11.6,45,0.00,,SCT045,0.01,VWS V14.00,2013-05-12 18:01:00,
2013-05-12 14:06:00,65.1,43.5,29.88,West,277,5.6,12.4,46,0.00,,SCT045,0.01,VWS V14.00,2013-05-12 18:06:00,
2013-05-12 14:11:00,64.9,42.0,29.88,NNW,335,9.3,15.6,43,0.00,,SCT045,0.01,VWS V14.00,2013-05-12 18:11:00,
2013-05-12 14:16:00,65.2,42.5,29.88,North,359,5.4,13.8,44,0.00,,SCT045,0.01,VWS V14.00,2013-05-12 18:16:00,
2013-05-12 14:21:00,64.6,41.2,29.88,NNW,342,6.7,13.8,42,0.00,,SCT045,0.01,VWS V14.00,2013-05-12 18:21:00,
2013-05-12 14:26:00,64.7,41.9,29.87,WSW,243,0.0,15.2,43,0.00,,SCT045,0.01,VWS V14.00,2013-05-12 18:26:00,
2013-05-12 14:31:00,64.5,42.2,29.88,WNW,298,8.1,10.0,44,0.00,,SCT045,0.01,VWS V14.00,2013-05-12 18:31:00,
2013-05-12 14:36:00,64.4,42.5,29.87,North,11,5.2,17.3,45,0.00,,SCT045,0.01,VWS V14.00,2013-05-12 18:36:00,
2013-05-12 14:41:00,64.3,42.2,29.87,NNW,333,7.0,17.3,44,0.00,,SCT045,0.01,VWS V14.00,2013-05-12 18:41:00,
2013-05-12 14:46:00,64.3,42.3,29.88,NNW,339,6.3,7.1,45,0.00,,SCT050,0.01,VWS V14.00,2013-05-12 18:46:00,
2013-05-12 14:51:00,63.9,41.6,29.87,NNW,338,5.0,9.4,44,0.00,,SCT050,0.01,VWS V14.00,2013-05-12 18:51:00,
2013-05-12 14:56:00,63.4,42.5,29.87,North,359,5.2,9.4,46,0.00,,SCT050,0.01,VWS V14.00,2013-05-12 18:56:00,
2013-05-12 15:01:00,64.8,43.3,29.87,NNW,328,7.1,7.1,46,0.00,,SCT050,0.01,VWS V14.00,2013-05-12 19:01:00,
2013-05-12 15:06:00,66.2,43.2,29.87,NNW,335,5.3,13.7,43,0.00,,SCT050,0.01,VWS V14.00,2013-05-12 19:06:00,
2013-05-12 15:11:00,65.3,42.7,29.87,WSW,249,3.4,13.7,44,0.00,,SCT050,0.01,VWS V14.00,2013-05-12 19:11:00,
2013-05-12 15:16:00,65.3,42.9,29.87,North,359,6.0,8.3,44,0.00,,SCT050,0.01,VWS V14.00,2013-05-12 19:16:00,
2013-05-12 15:21:00,65.6,43.5,29.87,North,3,5.5,8.3,45,0.00,,SCT050,0.01,VWS V14.00,2013-05-12 19:21:00,
2013-05-12 15:26:00,65.6,42.2,29.87,North,356,9.9,15.6,42,0.00,,SCT050,0.01,VWS V14.00,2013-05-12 19:26:00,
2013-05-12 15:31:00,66.7,43.9,29.87,East,83,0.0,0.0,44,0.00,,SCT050,0.01,VWS V14.00,2013-05-12 19:31:00,
2013-05-12 15:36:00,66.8,42.9,29.87,West,273,6.3,15.3,42,0.00,,SCT050,0.01,VWS V14.00,2013-05-12 19:36:00,
2013-05-12 15:41:00,66.7,43.3,29.87,North,10,3.2,15.3,43,0.00,,SCT050,0.01,VWS V14.00,2013-05-12 19:41:00,
2013-05-12 15:46:00,67.1,43.8,29.87,North,6,0.0,0.0,43,0.00,,SCT065,0.01,VWS V14.00,2013-05-12 19:46:00,
2013-05-12 15:51:00,67.5,43.4,29.87,NNW,339,13.4,15.3,42,0.00,,SCT065,0.01,VWS V14.00,2013-05-12 19:51:00,
2013-05-12 15:56:00,67.1,42.7,29.87,North,3,5.0,15.3,41,0.00,,SCT065,0.01,VWS V14.00,2013-05-12 19:56:00,
2013-05-12 16:01:00,67.0,42.9,29.87,WNW,298,3.3,12.1,42,0.00,,SCT065,0.01,VWS V14.00,2013-05-12 20:01:00,
2013-05-12 16:06:00,66.8,41.9,29.87,WNW,287,7.6,17.3,40,0.00,,SCT065,0.01,VWS V14.00,2013-05-12 20:06:00,
2013-05-12 16:11:00,67.2,42.8,29.87,NNE,17,6.2,17.3,41,0.00,,SCT065,0.01,VWS V14.00,2013-05-12 20:11:00,
2013-05-12 16:16:00,67.4,41.2,29.87,North,8,13.5,13.5,38,0.00,,SCT065,0.01,VWS V14.00,2013-05-12 20:16:00,
2013-05-12 16:21:00,67.0,42.0,29.87,North,1,4.4,13.7,40,0.00,,SCT065,0.01,VWS V14.00,2013-05-12 20:21:00,
2013-05-12 16:26:00,67.2,43.0,29.86,NNE,31,3.4,13.7,42,0.00,,SCT065,0.01,VWS V14.00,2013-05-12 20:26:00,
2013-05-12 16:31:00,67.4,41.7,29.87,NNE,20,3.4,9.5,39,0.00,,SCT065,0.01,VWS V14.00,2013-05-12 20:31:00,
2013-05-12 16:36:00,67.8,42.2,29.87,NNE,25,0.0,9.5,39,0.00,,SCT065,0.01,VWS V14.00,2013-05-12 20:36:00,
2013-05-12 16:41:00,68.0,42.1,29.87,NNE,27,4.5,11.9,39,0.00,,SCT065,0.01,VWS V14.00,2013-05-12 20:41:00,
2013-05-12 16:46:00,67.8,41.2,29.87,West,281,4.8,7.1,38,0.00,,SCT065,0.01,VWS V14.00,2013-05-12 20:46:00,
2013-05-12 16:51:00,67.8,40.5,29.87,NNW,335,9.5,9.9,37,0.00,,SCT065,0.01,VWS V14.00,2013-05-12 20:51:00,
2013-05-12 16:56:00,67.3,39.7,29.87,NNW,336,12.2,16.7,36,0.00,,SCT065,0.01,VWS V14.00,2013-05-12 20:56:00,
2013-05-12 17:01:00,67.1,40.3,29.87,NW,316,6.8,6.8,37,0.00,,SCT070,0.01,VWS V14.00,2013-05-12 21:01:00,
2013-05-12 17:06:00,67.3,40.0,29.87,NW,322,3.1,11.1,37,0.00,,SCT070,0.01,VWS V14.00,2013-05-12 21:06:00,
2013-05-12 17:11:00,67.0,39.0,29.87,NNE,14,6.1,16.4,36,0.00,,SCT070,0.01,VWS V14.00,2013-05-12 21:11:00,
2013-05-12 17:16:00,67.0,39.1,29.88,NNW,342,8.6,11.6,36,0.00,,SCT070,0.01,VWS V14.00,2013-05-12 21:16:00,
2013-05-12 17:21:00,66.9,39.0,29.88,NNW,342,7.8,12.9,36,0.00,,SCT070,0.01,VWS V14.00,2013-05-12 21:21:00,
2013-05-12 17:26:00,66.8,39.1,29.88,North,10,4.4,13.4,36,0.00,,SCT070,0.01,VWS V14.00,2013-05-12 21:26:00,
2013-05-12 17:31:00,66.9,39.4,29.88,NW,311,5.8,5.8,36,0.00,,SCT070,0.01,VWS V14.00,2013-05-12 21:31:00,
2013-05-12 17:36:00,67.0,38.4,29.88,WNW,301,7.8,9.6,35,0.00,,SCT070,0.01,VWS V14.00,2013-05-12 21:36:00,
2013-05-12 17:41:00,67.0,37.8,29.88,NNW,342,7.6,11.7,34,0.00,,SCT070,0.01,VWS V14.00,2013-05-12 21:41:00,
2013-05-12 17:46:00,66.8,36.8,29.88,NW,322,5.7,7.8,33,0.00,,CLR,0.01,VWS V14.00,2013-05-12 21:46:00,
2013-05-12 17:51:00,66.9,38.1,29.89,NNE,21,0.0,10.6,35,0.00,,CLR,0.01,VWS V14.00,2013-05-12 21:51:00,
2013-05-12 17:56:00,67.1,38.2,29.89,NNW,345,7.1,10.6,34,0.00,,CLR,0.01,VWS V14.00,2013-05-12 21:56:00,
2013-05-12 18:01:00,67.1,39.3,29.89,North,359,4.3,8.8,36,0.00,,CLR,0.01,VWS V14.00,2013-05-12 22:01:00,
2013-05-12 18:06:00,66.8,39.5,29.89,North,0,3.4,16.5,37,0.00,,CLR,0.01,VWS V14.00,2013-05-12 22:06:00,
2013-05-12 18:11:00,66.5,39.5,29.89,NNW,340,8.6,16.5,37,0.00,,CLR,0.01,VWS V14.00,2013-05-12 22:11:00,
2013-05-12 18:16:00,66.2,39.0,29.89,NNW,330,3.3,6.6,37,0.00,,CLR,0.01,VWS V14.00,2013-05-12 22:16:00,
2013-05-12 18:21:00,66.2,39.5,29.89,NNW,342,6.5,8.9,37,0.00,,CLR,0.01,VWS V14.00,2013-05-12 22:21:00,
2013-05-12 18:26:00,66.1,39.2,29.90,North,1,5.3,8.9,37,0.00,,CLR,0.01,VWS V14.00,2013-05-12 22:26:00,
2013-05-12 18:31:00,65.8,38.3,29.90,North,4,6.6,6.6,36,0.00,,CLR,0.01,VWS V14.00,2013-05-12 22:31:00,
2013-05-12 18:36:00,65.7,38.3,29.90,NNE,25,6.3,7.0,36,0.00,,CLR,0.01,VWS V14.00,2013-05-12 22:36:00,
2013-05-12 18:41:00,65.7,38.4,29.91,NNW,347,2.9,9.2,36,0.00,,CLR,0.01,VWS V14.00,2013-05-12 22:41:00,
2013-05-12 18:46:00,65.4,38.3,29.91,NW,304,4.3,9.9,37,0.00,,CLR,0.01,VWS V14.00,2013-05-12 22:46:00,
2013-05-12 18:51:00,64.7,38.3,29.91,North,1,0.0,15.9,38,0.00,,CLR,0.01,VWS V14.00,2013-05-12 22:51:00,
2013-05-12 18:56:00,64.6,38.0,29.92,NNE,32,0.0,15.9,37,0.00,,CLR,0.01,VWS V14.00,2013-05-12 22:56:00,
2013-05-12 19:01:00,64.0,37.4,29.92,NW,309,3.2,5.3,37,0.00,,CLR,0.01,VWS V14.00,2013-05-12 23:01:00,
2013-05-12 19:06:00,63.6,37.4,29.92,NW,315,7.1,7.1,38,0.00,,CLR,0.01,VWS V14.00,2013-05-12 23:06:00,
2013-05-12 19:11:00,63.7,38.3,29.92,North,8,3.0,7.1,39,0.00,,CLR,0.01,VWS V14.00,2013-05-12 23:11:00,
2013-05-12 19:16:00,62.8,37.4,29.93,North,353,0.0,0.0,39,0.00,,CLR,0.01,VWS V14.00,2013-05-12 23:16:00,
2013-05-12 19:21:00,61.9,36.4,29.92,North,3,0.0,8.4,38,0.00,,CLR,0.01,VWS V14.00,2013-05-12 23:21:00,
2013-05-12 19:26:00,61.1,35.4,29.93,North,11,0.0,8.4,38,0.00,,CLR,0.01,VWS V14.00,2013-05-12 23:26:00,
2013-05-12 19:31:00,58.3,32.8,29.93,NNW,347,2.7,6.3,38,0.00,,CLR,0.01,VWS V14.00,2013-05-12 23:31:00,
2013-05-12 19:36:00,62.3,37.2,29.93,NNE,27,0.0,7.1,39,0.00,,CLR,0.01,VWS V14.00,2013-05-12 23:36:00,
2013-05-12 19:41:00,59.9,35.0,29.93,North,0,0.0,7.1,39,0.00,,CLR,0.01,VWS V14.00,2013-05-12 23:41:00,
2013-05-12 19:46:00,61.9,37.1,29.93,NNW,347,0.0,0.0,40,0.00,,CLR,0.01,VWS V14.00,2013-05-12 23:46:00,
2013-05-12 19:51:00,61.7,37.1,29.93,North,356,0.0,6.2,40,0.00,,CLR,0.01,VWS V14.00,2013-05-12 23:51:00,
2013-05-12 19:56:00,61.3,36.8,29.93,North,359,3.2,6.2,40,0.00,,CLR,0.01,VWS V14.00,2013-05-12 23:56:00,
2013-05-12 20:01:00,61.2,36.9,29.93,NNW,336,0.0,0.0,40,0.00,,CLR,0.01,VWS V14.00,2013-05-13 00:01:00,
2013-05-12 20:06:00,60.7,36.8,29.93,NNW,336,0.0,0.0,41,0.00,,CLR,0.01,VWS V14.00,2013-05-13 00:06:00,
2013-05-12 20:11:00,59.7,36.3,29.93,North,10,0.0,6.0,42,0.00,,CLR,0.01,VWS V14.00,2013-05-13 00:11:00,
2013-05-12 20:16:00,59.1,35.8,29.94,NNE,25,0.0,0.0,42,0.00,,CLR,0.01,VWS V14.00,2013-05-13 00:16:00,
2013-05-12 20:21:00,56.5,33.8,29.93,NNE,25,0.0,0.0,42,0.00,,CLR,0.01,VWS V14.00,2013-05-13 00:21:00,
2013-05-12 20:26:00,53.6,31.4,29.94,NNE,25,0.0,0.0,43,0.00,,CLR,0.01,VWS V14.00,2013-05-13 00:26:00,
2013-05-12 20:31:00,53.0,31.6,29.94,North,359,0.0,0.0,44,0.00,,CLR,0.01,VWS V14.00,2013-05-13 00:31:00,
2013-05-12 20:36:00,52.6,31.5,29.94,North,359,0.0,0.0,44,0.00,,CLR,0.01,VWS V14.00,2013-05-13 00:36:00,
2013-05-12 20:41:00,52.2,31.6,29.94,North,359,0.0,0.0,45,0.00,,CLR,0.01,VWS V14.00,2013-05-13 00:41:00,
2013-05-12 20:46:00,51.4,31.4,29.94,North,359,0.0,0.0,46,0.00,,CLR,0.01,VWS V14.00,2013-05-13 00:46:00,
2013-05-12 20:51:00,53.5,33.5,29.95,North,359,0.0,0.0,46,0.00,,CLR,0.01,VWS V14.00,2013-05-13 00:51:00,
2013-05-12 20:56:00,52.7,33.5,29.95,North,359,0.0,0.0,48,0.00,,CLR,0.01,VWS V14.00,2013-05-13 00:56:00,
2013-05-12 21:01:00,51.2,32.7,29.95,North,359,0.0,0.0,49,0.00,,CLR,0.01,VWS V14.00,2013-05-13 01:01:00,
2013-05-12 21:06:00,51.2,33.2,29.95,North,359,0.0,0.0,50,0.00,,CLR,0.01,VWS V14.00,2013-05-13 01:06:00,
2013-05-12 21:11:00,52.0,34.2,29.95,North,359,0.0,0.0,51,0.00,,CLR,0.01,VWS V14.00,2013-05-13 01:11:00,
2013-05-12 21:16:00,52.1,34.2,29.96,North,359,0.0,0.0,50,0.00,,CLR,0.01,VWS V14.00,2013-05-13 01:16:00,
2013-05-12 21:21:00,52.5,35.0,29.96,North,359,0.0,0.0,51,0.00,,CLR,0.01,VWS V14.00,2013-05-13 01:21:00,
2013-05-12 21:26:00,52.8,36.1,29.96,North,359,0.0,0.0,53,0.00,,CLR,0.01,VWS V14.00,2013-05-13 01:26:00,
2013-05-12 21:31:00,52.6,36.5,29.97,North,359,0.0,0.0,54,0.00,,CLR,0.01,VWS V14.00,2013-05-13 01:31:00,
2013-05-12 21:36:00,51.7,36.0,29.97,North,359,0.0,0.0,55,0.00,,CLR,0.01,VWS V14.00,2013-05-13 01:36:00,
2013-05-12 21:41:00,49.2,34.3,29.97,North,359,0.0,0.0,56,0.00,,CLR,0.01,VWS V14.00,2013-05-13 01:41:00,
2013-05-12 21:46:00,51.4,37.9,29.97,North,359,0.0,0.0,60,0.00,,CLR,0.01,VWS V14.00,2013-05-13 01:46:00,
2013-05-12 21:51:00,51.2,37.8,29.97,North,359,0.0,0.0,60,0.00,,CLR,0.01,VWS V14.00,2013-05-13 01:51:00,
2013-05-12 21:56:00,51.1,37.8,29.98,North,359,0.0,0.0,60,0.00,,CLR,0.01,VWS V14.00,2013-05-13 01:56:00,
2013-05-12 22:01:00,51.4,37.7,29.98,NNE,17,0.0,0.0,59,0.00,,CLR,0.01,VWS V14.00,2013-05-13 02:01:00,
2013-05-12 22:06:00,51.4,37.9,29.98,NNE,17,0.0,0.0,60,0.00,,CLR,0.01,VWS V14.00,2013-05-13 02:06:00,
2013-05-12 22:11:00,50.9,37.0,29.98,North,357,0.0,3.4,59,0.00,,CLR,0.01,VWS V14.00,2013-05-13 02:11:00,
2013-05-12 22:16:00,50.7,36.4,29.98,NNE,22,0.0,3.4,58,0.00,,CLR,0.01,VWS V14.00,2013-05-13 02:16:00,
2013-05-12 22:21:00,49.9,35.8,29.98,North,10,0.0,4.3,58,0.00,,CLR,0.01,VWS V14.00,2013-05-13 02:21:00,
2013-05-12 22:26:00,49.0,34.7,29.98,North,10,0.0,4.3,58,0.00,,CLR,0.01,VWS V14.00,2013-05-13 02:26:00,
2013-05-12 22:31:00,35.7,22.7,29.98,North,10,0.0,0.0,59,0.00,,CLR,0.01,VWS V14.00,2013-05-13 02:31:00,
2013-05-12 22:36:00,38.7,25.4,29.98,North,10,0.0,0.0,58,0.00,,CLR,0.01,VWS V14.00,2013-05-13 02:36:00,
2013-05-12 22:41:00,37.5,24.6,29.98,North,10,0.0,0.0,59,0.00,,CLR,0.01,VWS V14.00,2013-05-13 02:41:00,
2013-05-12 22:46:00,36.3,23.4,29.98,North,10,0.0,0.0,59,0.00,,CLR,0.01,VWS V14.00,2013-05-13 02:46:00,
2013-05-12 22:51:00,33.7,20.7,29.98,North,10,0.0,0.0,58,0.00,,CLR,0.01,VWS V14.00,2013-05-13 02:51:00,
2013-05-12 22:56:00,32.5,19.9,29.98,North,10,0.0,0.0,59,0.00,,CLR,0.01,VWS V14.00,2013-05-13 02:56:00,
2013-05-12 23:01:00,31.9,19.0,29.98,North,10,0.0,0.0,58,0.00,,CLR,0.01,VWS V14.00,2013-05-13 03:01:00,
2013-05-12 23:06:00,35.3,22.3,29.98,North,10,0.0,0.0,59,0.00,,CLR,0.01,VWS V14.00,2013-05-13 03:06:00,
2013-05-12 23:11:00,32.8,20.4,29.98,North,10,0.0,0.0,60,0.00,,CLR,0.01,VWS V14.00,2013-05-13 03:11:00,
2013-05-12 23:16:00,47.6,33.8,29.98,North,10,0.0,0.0,59,0.00,,CLR,0.01,VWS V14.00,2013-05-13 03:16:00,
2013-05-12 23:21:00,48.6,34.9,29.98,North,1,0.0,4.1,59,0.00,,CLR,0.01,VWS V14.00,2013-05-13 03:21:00,
2013-05-12 23:26:00,49.7,36.3,29.98,North,1,0.0,4.1,60,0.00,,CLR,0.01,VWS V14.00,2013-05-13 03:26:00,
2013-05-12 23:31:00,49.9,36.7,29.98,North,1,0.0,0.0,60,0.00,,CLR,0.01,VWS V14.00,2013-05-13 03:31:00,
2013-05-12 23:36:00,50.8,37.4,29.98,North,1,0.0,0.0,60,0.00,,CLR,0.01,VWS V14.00,2013-05-13 03:36:00,
2013-05-12 23:41:00,50.6,37.3,29.98,North,1,0.0,0.0,60,0.00,,CLR,0.01,VWS V14.00,2013-05-13 03:41:00,
2013-05-12 23:46:00,50.5,37.5,29.98,North,1,0.0,0.0,61,0.00,,CLR,0.01,VWS V14.00,2013-05-13 03:46:00,
2013-05-12 23:51:00,50.3,37.5,29.98,North,1,0.0,0.0,61,0.00,,CLR,0.01,VWS V14.00,2013-05-13 03:51:00,
2013-05-12 23:56:00,50.0,37.6,29.99,North,1,0.0,0.0,62,0.00,,CLR,0.01,VWS V14.00,2013-05-13 03:56:00,